Weather History for Tunica, MS

Change the Weather History Date:

Wednesday, February 27, 2013

  Actual Average (KMEM) Record (KMEM)
Temperature  
Mean Temperature 42 °F 49 °F  
Max Temperature 48 °F 58 °F 80 °F (1981)
Min Temperature 37 °F 40 °F 12 °F (1934)
Degree Days  
Heating Degree Days 22 16  
Month to date heating degree days 531  
Since 1 July heating degree days 2433  
Cooling Degree Days 0 0  
Month to date cooling degree days 0  
Year to date cooling degree days 1  
Moisture  
Dew Point 33 °F    
Average Humidity 70    
Maximum Humidity 81    
Minimum Humidity 61    
Precipitation  
Precipitation 0.00 in 0.17 in 2.29 in (1890)
Month to date precipitation 4.23  
Year to date precipitation 8.21  
Snow  
Snow 0.00 in 0.00 in T in (2002)
Month to date snowfall 1.3  
Since 1 July snowfall 3.4  
Snow Depth -    
Sea Level Pressure  
Sea Level Pressure 29.96 in    
Wind  
Wind Speed 10 mph (West)    
Max Wind Speed 18 mph    
Max Gust Speed 24 mph    
Visibility 10 miles    
Events      
T = Trace of Precipitation, MM = Missing Value Source: NWS Daily Summary

Daily Weather History Graph

Daily Weather History Graph

Search for Another Location

Airport:

Trip Planner

Search our weather history database for the weather conditions in past years. The results will help you decide how hot, cold, wet, or windy it might be!

Date:

Astronomy

Feb. 27, 2013 Rise Set
Actual Time 6:32 AM CST 5:55 PM CST
Civil Twilight 6:07 AM CST 6:21 PM CST
Nautical Twilight 5:38 AM CST 6:50 PM CST
Astronomical Twilight 5:09 AM CST 7:19 PM CST
Moon 8:08 PM CST (2/27) 7:14 AM CST (2/27)
Length of Visible Light 12h 13m
Length of Day
11h 23m
Waning Gibbous, 96% of the Moon is Illuminated
Feb 27
Waning Gibbous
Mar 4
Last Quarter
Mar 11
New
Mar 19
First Quarter
Mar 27
Full

Hourly Weather History & Observations

Time (CST) Temp. Windchill Dew Point Humidity Pressure Visibility Wind Dir Wind Speed Gust Speed Precip Events Conditions
12:15 AM 41.0 °F 34.3 °F 32.0 °F 70% 29.88 in 10.0 mi West 11.5 mph - N/A   Overcast
12:35 AM 41.0 °F 34.7 °F 32.0 °F 70% 29.89 in 10.0 mi West 10.4 mph - N/A   Overcast
12:55 AM 41.0 °F 35.2 °F 32.0 °F 70% 29.89 in 10.0 mi West 9.2 mph - N/A   Overcast
1:15 AM 41.0 °F 35.2 °F 32.0 °F 70% 29.89 in 10.0 mi West 9.2 mph - N/A   Overcast
1:35 AM 41.0 °F 34.7 °F 32.0 °F 70% 29.89 in 10.0 mi West 10.4 mph - N/A   Overcast
1:55 AM 41.0 °F 36.4 °F 32.0 °F 70% 29.88 in 10.0 mi West 6.9 mph - N/A   Overcast
2:15 AM 41.0 °F 36.4 °F 32.0 °F 70% 29.87 in 10.0 mi West 6.9 mph - N/A   Overcast
2:35 AM 41.0 °F 35.8 °F 32.0 °F 70% 29.88 in 10.0 mi West 8.1 mph - N/A   Overcast
2:55 AM 41.0 °F 37.1 °F 32.0 °F 70% 29.88 in 10.0 mi West 5.8 mph - N/A   Overcast
3:15 AM 41.0 °F 35.8 °F 32.0 °F 70% 29.89 in 10.0 mi West 8.1 mph - N/A   Overcast
3:35 AM 41.0 °F 36.4 °F 32.0 °F 70% 29.89 in 10.0 mi West 6.9 mph - N/A   Overcast
3:55 AM 41.0 °F 35.8 °F 32.0 °F 70% 29.89 in 10.0 mi West 8.1 mph - N/A   Overcast
4:15 AM 41.0 °F 38.0 °F 33.8 °F 76% 29.89 in 10.0 mi WSW 4.6 mph - N/A   Overcast
4:35 AM 41.0 °F 38.0 °F 33.8 °F 76% 29.89 in 10.0 mi WSW 4.6 mph - N/A   Overcast
4:55 AM 41.0 °F 38.0 °F 33.8 °F 76% 29.90 in 10.0 mi WSW 4.6 mph - N/A   Overcast
5:15 AM 39.2 °F 35.0 °F 33.8 °F 81% 29.91 in 10.0 mi WSW 5.8 mph - N/A   Overcast
5:35 AM 41.0 °F 35.8 °F 33.8 °F 76% 29.91 in 10.0 mi West 8.1 mph - N/A   Overcast
5:55 AM 41.0 °F 37.1 °F 32.0 °F 70% 29.92 in 10.0 mi West 5.8 mph - N/A   Overcast
6:15 AM 41.0 °F 37.1 °F 32.0 °F 70% 29.92 in 10.0 mi West 5.8 mph - N/A   Overcast
6:35 AM 39.2 °F 35.9 °F 32.0 °F 75% 29.92 in 10.0 mi West 4.6 mph - N/A   Overcast
6:55 AM 39.2 °F 35.0 °F 33.8 °F 81% 29.93 in 10.0 mi West 5.8 mph - N/A   Overcast
7:15 AM 39.2 °F 33.6 °F 33.8 °F 81% 29.93 in 10.0 mi West 8.1 mph - N/A   Overcast
7:35 AM 41.0 °F 36.4 °F 32.0 °F 70% 29.94 in 10.0 mi WNW 6.9 mph - N/A   Overcast
7:55 AM 41.0 °F 34.7 °F 32.0 °F 70% 29.95 in 10.0 mi WNW 10.4 mph - N/A   Overcast
8:15 AM 41.0 °F 35.2 °F 32.0 °F 70% 29.96 in 10.0 mi WNW 9.2 mph - N/A   Mostly Cloudy
8:35 AM 41.0 °F 34.7 °F 32.0 °F 70% 29.97 in 10.0 mi WNW 10.4 mph - N/A   Overcast
8:55 AM 41.0 °F 33.9 °F 32.0 °F 70% 29.97 in 10.0 mi WNW 12.7 mph 18.4 mph N/A   Overcast
9:15 AM 41.0 °F 35.8 °F 32.0 °F 70% 29.98 in 10.0 mi West 8.1 mph 16.1 mph N/A   Overcast
9:35 AM 42.8 °F 37.0 °F 32.0 °F 66% 29.97 in 10.0 mi West 10.4 mph - N/A   Overcast
9:55 AM 42.8 °F 37.0 °F 32.0 °F 66% 29.98 in 10.0 mi West 10.4 mph - N/A   Overcast
10:15 AM 42.8 °F 36.6 °F 32.0 °F 66% 29.98 in 10.0 mi West 11.5 mph - N/A   Overcast
10:35 AM 42.8 °F 36.6 °F 33.8 °F 70% 29.99 in 10.0 mi West 11.5 mph - N/A   Overcast
10:55 AM 44.6 °F 38.4 °F 33.8 °F 66% 29.99 in 10.0 mi WSW 12.7 mph - N/A   Overcast
11:15 AM 44.6 °F 38.1 °F 33.8 °F 66% 29.99 in 10.0 mi WSW 13.8 mph 17.3 mph N/A   Overcast
11:35 AM 44.6 °F 39.2 °F 33.8 °F 66% 29.98 in 10.0 mi WSW 10.4 mph 17.3 mph N/A   Overcast
11:55 AM 44.6 °F 38.4 °F 33.8 °F 66% 29.98 in 10.0 mi SW 12.7 mph - N/A   Mostly Cloudy
12:15 PM 46.4 °F 41.9 °F 33.8 °F 62% 29.97 in 10.0 mi WSW 9.2 mph 16.1 mph N/A   Mostly Cloudy
12:35 PM 44.6 °F 38.8 °F 33.8 °F 66% 29.96 in 10.0 mi West 11.5 mph - N/A   Overcast
12:55 PM 46.4 °F 40.4 °F 35.6 °F 66% 29.95 in 10.0 mi WSW 13.8 mph - N/A   Overcast
1:15 PM 46.4 °F 41.1 °F 35.6 °F 66% 29.95 in 10.0 mi WSW 11.5 mph 16.1 mph N/A   Overcast
1:35 PM 48.2 °F - 35.6 °F 62% 29.94 in 10.0 mi West 13.8 mph - N/A   Overcast
1:55 PM 46.4 °F 40.7 °F 35.6 °F 66% 29.94 in 10.0 mi WSW 12.7 mph - N/A   Mostly Cloudy
2:15 PM 48.2 °F - 37.4 °F 66% 29.95 in 10.0 mi West 12.7 mph 18.4 mph N/A   Overcast
2:35 PM 46.4 °F 39.8 °F 35.6 °F 66% 29.95 in 10.0 mi West 16.1 mph 19.6 mph N/A   Overcast
2:55 PM 46.4 °F 40.4 °F 35.6 °F 66% 29.96 in 10.0 mi West 13.8 mph - N/A   Overcast
3:15 PM 46.4 °F 39.5 °F 35.6 °F 66% 29.96 in 10.0 mi West 17.3 mph - N/A   Overcast
3:35 PM 46.4 °F 40.4 °F 35.6 °F 66% 29.97 in 10.0 mi WNW 13.8 mph 20.7 mph N/A   Overcast
3:55 PM 46.4 °F 39.8 °F 35.6 °F 66% 29.98 in 10.0 mi West 16.1 mph 20.7 mph N/A   Overcast
4:15 PM 46.4 °F 41.1 °F 35.6 °F 66% 29.98 in 10.0 mi West 11.5 mph 21.9 mph N/A   Mostly Cloudy
4:35 PM 44.6 °F 36.9 °F 33.8 °F 66% 29.99 in 10.0 mi West 18.4 mph 24.2 mph N/A   Overcast
4:55 PM 46.4 °F 40.1 °F 33.8 °F 62% 29.98 in 10.0 mi West 15.0 mph 19.6 mph N/A   Scattered Clouds
5:15 PM 44.6 °F 39.2 °F 33.8 °F 66% 29.98 in 10.0 mi West 10.4 mph - N/A   Mostly Cloudy
5:35 PM 44.6 °F 38.8 °F 32.0 °F 61% 29.98 in 10.0 mi West 11.5 mph - N/A   Mostly Cloudy
5:55 PM 44.6 °F 39.7 °F 33.8 °F 66% 29.99 in 10.0 mi West 9.2 mph - N/A   Scattered Clouds
6:15 PM 42.8 °F 38.6 °F 33.8 °F 70% 29.99 in 10.0 mi West 6.9 mph - N/A   Clear
6:35 PM 42.8 °F 38.0 °F 33.8 °F 70% 29.99 in 10.0 mi West 8.1 mph - N/A   Clear
6:55 PM 42.8 °F 37.5 °F 33.8 °F 70% 30.00 in 10.0 mi West 9.2 mph - N/A   Clear
7:15 PM 42.8 °F 38.6 °F 33.8 °F 70% 30.00 in 10.0 mi WSW 6.9 mph - N/A   Scattered Clouds
7:35 PM 41.0 °F 35.2 °F 33.8 °F 76% 30.00 in 10.0 mi WSW 9.2 mph - N/A   Scattered Clouds
7:55 PM 41.0 °F 34.7 °F 33.8 °F 76% 30.00 in 10.0 mi West 10.4 mph - N/A   Clear
8:15 PM 41.0 °F 33.9 °F 33.8 °F 76% 30.00 in 10.0 mi West 12.7 mph - N/A   Clear
8:35 PM 41.0 °F 34.3 °F 32.0 °F 70% 30.00 in 10.0 mi West 11.5 mph - N/A   Clear
8:55 PM 41.0 °F 34.3 °F 32.0 °F 70% 30.00 in 10.0 mi West 11.5 mph - N/A   Clear
9:15 PM 41.0 °F 34.3 °F 32.0 °F 70% 30.01 in 10.0 mi West 11.5 mph - N/A   Clear
9:35 PM 41.0 °F 34.3 °F 32.0 °F 70% 30.01 in 10.0 mi West 11.5 mph - N/A   Clear
9:55 PM 41.0 °F 33.9 °F 32.0 °F 70% 30.01 in 10.0 mi West 12.7 mph - N/A   Clear
10:15 PM 41.0 °F 34.3 °F 32.0 °F 70% 30.01 in 10.0 mi West 11.5 mph - N/A   Clear
10:35 PM 41.0 °F 34.3 °F 32.0 °F 70% 30.01 in 10.0 mi West 11.5 mph 16.1 mph N/A   Clear
10:55 PM 41.0 °F 35.8 °F 32.0 °F 70% 30.01 in 10.0 mi West 8.1 mph - N/A   Clear
11:15 PM 39.2 °F 33.0 °F 32.0 °F 75% 30.01 in 10.0 mi West 9.2 mph - N/A   Clear
11:35 PM 37.4 °F 30.8 °F 32.0 °F 81% 30.01 in 10.0 mi WNW 9.2 mph - N/A   Clear
11:55 PM 39.2 °F 33.6 °F 32.0 °F 75% 30.01 in 10.0 mi WNW 8.1 mph - N/A   Mostly Cloudy